Regional Weather Roundup
Issued by NWS

Home | Current Version | Previous Version | Graphics & Text | Print | Product List | Glossary On
Versions: 1 2 3 4 5 6 7 8 9 10 11 12 13 14 15 16 17 18 19 20 21 22 23 24 25 26 27 28 29 30 31 32 33 34 35 36 37 38 39 40 41 42 43 44 45 46 47 48 49 50
000
ASUS43 KBIS 242110
RWRND

NORTH DAKOTA REGIONAL WEATHER ROUNDUP
NATIONAL WEATHER SERVICE BISMARCK ND
400 PM CDT MON APR 24 2017

NOTE: "FAIR" INDICATES FEW OR NO CLOUDS BELOW 12,000 FEET WITH NO
SIGNIFICANT WEATHER AND/OR OBSTRUCTIONS TO VISIBILITY.


NDZ001>003-009>011-017-242200-
NORTHWEST NORTH DAKOTA

CITY           SKY/WX    TMP DP  RH WIND       PRES   REMARKS
WILLISTON      CLOUDY    38  28  67 N8        29.73R
MINOT          CLOUDY    34  29  82 N13       29.71R
MINOT AFB      CLOUDY    33  28  80 NE14      29.71S
$$

NDZ018>021-031>035-040>046-242200-
SOUTHWEST NORTH DAKOTA

CITY           SKY/WX    TMP DP  RH WIND       PRES   REMARKS
BISMARCK       CLOUDY    40  34  79 N15G21    29.66R
DICKINSON      CLOUDY    38  32  79 N6        29.64R
GARRISON         N/A     34  28  79 NE10      29.68R
HETTINGER ARPT CLOUDY    44  37  76 N10       29.64R
$$

NDZ004>008-012>016-024-026-027-054-242200-
NORTHEAST NORTH DAKOTA

CITY           SKY/WX    TMP DP  RH WIND       PRES   REMARKS
GRAND FORKS    LGT RAIN  37  36  96 N16       29.61S
GRND FRKS AFB  LGT RAIN  32  32 100 N16       29.62F
DEVILS LAKE    FLURRIES  33  30  88 NE14      29.67R
$$

NDZ022-023-025-028>030-036>039-047>053-242200-
SOUTHEAST NORTH DAKOTA

CITY           SKY/WX    TMP DP  RH WIND       PRES   REMARKS
FARGO          LGT RAIN  47  44  90 N16       29.53R
JAMESTOWN      CLOUDY    36  36 100 N17       29.58R
$$




USA.gov is the U.S. government's official web portal to all federal, state and local government web resources and services.